"read_dt","SO2 (ppb)","flags","PMT voltage (V)","lamp voltage (V)","lamp intensity (Hz)","internal temp (C)","react chamber temp (C)","sample flow (l/min)","pres (mmHg)","SO2 bkg (ppb)","SO2 coefficient"
2017-02-23 00:00:00,1663E-3,5C000400,-0724,0839,12060,027.0,045.4,0.224,759.7,01.16,0.508
2017-02-23 00:01:00,1752E-3,5C000400,-0724,0838,12054,026.9,045.4,0.224,759.7,01.16,0.508
2017-02-23 00:02:00,1746E-3,5C000400,-0724,0838,12028,026.9,045.4,0.224,759.7,01.16,0.508
2017-02-23 00:03:00,1663E-3,5C000400,-0724,0838,11984,026.9,045.4,0.224,759.7,01.16,0.508
2017-02-23 00:04:00,1817E-3,5C000400,-0724,0838,12106,027.0,045.4,0.224,759.7,01.16,0.508
2017-02-23 00:05:00,1767E-3,5C000400,-0724,0839,12054,026.9,045.4,0.224,759.7,01.16,0.508
2017-02-23 00:06:00,1710E-3,5C000400,-0724,0838,12094,026.9,045.4,0.224,759.7,01.16,0.508
2017-02-23 00:07:00,1680E-3,5C000400,-0724,0838,12102,026.9,045.4,0.224,759.7,01.16,0.508
2017-02-23 00:08:00,1671E-3,5C000400,-0724,0838,12100,026.9,045.4,0.224,759.7,01.16,0.508
2017-02-23 00:09:00,1686E-3,5C000400,-0724,0838,11992,027.0,045.4,0.224,759.7,01.16,0.508
2017-02-23 00:10:00,1743E-3,5C000400,-0724,0839,12075,027.0,045.4,0.224,759.7,01.16,0.508
2017-02-23 00:11:00,1803E-3,5C000400,-0724,0838,12032,026.9,045.4,0.224,759.6,01.16,0.508
2017-02-23 00:12:00,1749E-3,5C000400,-0724,0838,12101,027.0,045.4,0.224,759.6,01.16,0.508
2017-02-23 00:13:00,1822E-3,5C000400,-0724,0838,12082,026.9,045.4,0.224,759.6,01.16,0.508
2017-02-23 00:14:00,1783E-3,5C000400,-0724,0838,12120,026.9,045.4,0.224,759.6,01.16,0.508
2017-02-23 00:15:00,1638E-3,5C000400,-0724,0839,12020,026.9,045.4,0.224,759.6,01.16,0.508
2017-02-23 00:16:00,1743E-3,5C000400,-0724,0838,12004,026.9,045.4,0.224,759.6,01.16,0.508
2017-02-23 00:17:00,1729E-3,5C000400,-0724,0838,11931,026.9,045.4,0.224,759.6,01.16,0.508
2017-02-23 00:18:00,1621E-3,5C000400,-0724,0838,12090,027.0,045.4,0.224,759.6,01.16,0.508
2017-02-23 00:19:00,1697E-3,5C000400,-0724,0838,12084,027.0,045.4,0.224,759.6,01.16,0.508
2017-02-23 00:20:00,1654E-3,5C000400,-0724,0838,11976,027.0,045.4,0.224,759.6,01.16,0.508
2017-02-23 00:21:00,1593E-3,5C000400,-0724,0838,11869,026.9,045.4,0.224,759.6,01.16,0.508
2017-02-23 00:22:00,1542E-3,5C000400,-0724,0839,12016,027.0,045.4,0.224,759.6,01.16,0.508
2017-02-23 00:23:00,1739E-3,5C000400,-0724,0839,12120,027.0,045.4,0.224,759.6,01.16,0.508
2017-02-23 00:24:00,1744E-3,5C000400,-0724,0838,12129,026.9,045.4,0.224,759.5,01.16,0.508
2017-02-23 00:25:00,1767E-3,5C000400,-0724,0839,12073,026.9,045.4,0.224,759.5,01.16,0.508
2017-02-23 00:26:00,1719E-3,5C000400,-0724,0838,12087,027.0,045.4,0.224,759.5,01.16,0.508
2017-02-23 00:27:00,1588E-3,5C000400,-0724,0838,12115,026.9,045.4,0.224,759.5,01.16,0.508
2017-02-23 00:28:00,1674E-3,5C000400,-0724,0838,12085,027.0,045.4,0.224,759.5,01.16,0.508
2017-02-23 00:29:00,1729E-3,5C000400,-0724,0838,11784,027.0,045.4,0.224,759.5,01.16,0.508
2017-02-23 00:30:00,1721E-3,5C000400,-0724,0838,12048,027.0,045.4,0.224,759.5,01.16,0.508
2017-02-23 00:31:00,1652E-3,5C000400,-0724,0839,12022,027.0,045.4,0.224,759.5,01.16,0.508
2017-02-23 00:32:00,1766E-3,5C000400,-0724,0837,11930,027.0,045.4,0.224,759.4,01.16,0.508
2017-02-23 00:33:00,1532E-3,5C000400,-0724,0838,11966,027.0,045.4,0.224,759.4,01.16,0.508
2017-02-23 00:34:00,1790E-3,5C000400,-0724,0838,12197,027.0,045.4,0.224,759.4,01.16,0.508
2017-02-23 00:35:00,1659E-3,5C000400,-0724,0838,12017,027.0,045.4,0.224,759.4,01.16,0.508
2017-02-23 00:36:00,1624E-3,5C000400,-0724,0838,11972,027.0,045.4,0.225,759.4,01.16,0.508
2017-02-23 00:37:00,1739E-3,5C000400,-0724,0839,11995,027.0,045.4,0.225,759.4,01.16,0.508
2017-02-23 00:38:00,1555E-3,5C000400,-0724,0839,12001,027.0,045.4,0.224,759.4,01.16,0.508
2017-02-23 00:39:00,1853E-3,5C000400,-0724,0838,11991,027.0,045.4,0.224,759.4,01.16,0.508
2017-02-23 00:40:00,1674E-3,5C000400,-0724,0838,12118,027.0,045.4,0.224,759.4,01.16,0.508
2017-02-23 00:41:00,1697E-3,5C000400,-0724,0839,12125,027.0,045.4,0.224,759.4,01.16,0.508
2017-02-23 00:42:00,1698E-3,5C000400,-0724,0838,11888,027.0,045.4,0.224,759.4,01.16,0.508
2017-02-23 00:43:00,1677E-3,5C000400,-0724,0838,11939,027.0,045.4,0.224,759.4,01.16,0.508
2017-02-23 00:44:00,1690E-3,5C000400,-0724,0839,12019,027.0,045.4,0.224,759.4,01.16,0.508
2017-02-23 00:45:00,1657E-3,5C000400,-0724,0838,11926,027.0,045.4,0.224,759.4,01.16,0.508
2017-02-23 00:46:00,1693E-3,5C000400,-0724,0839,12027,027.0,045.4,0.224,759.4,01.16,0.508
2017-02-23 00:47:00,1696E-3,5C000400,-0724,0838,11968,027.0,045.4,0.224,759.4,01.16,0.508
2017-02-23 00:48:00,1669E-3,5C000400,-0724,0838,12111,027.0,045.4,0.224,759.4,01.16,0.508
2017-02-23 00:49:00,1683E-3,5C000400,-0724,0838,12021,027.0,045.4,0.224,759.4,01.16,0.508
2017-02-23 00:50:00,1650E-3,5C000400,-0724,0838,12060,027.0,045.4,0.224,759.4,01.16,0.508
2017-02-23 00:51:00,1666E-3,5C000400,-0724,0838,12100,027.0,045.4,0.224,759.4,01.16,0.508
2017-02-23 00:52:00,1648E-3,5C000400,-0724,0838,12113,027.0,045.4,0.224,759.4,01.16,0.508
2017-02-23 00:53:00,1666E-3,5C000400,-0724,0838,11955,027.0,045.4,0.224,759.4,01.16,0.508
2017-02-23 00:54:00,1759E-3,5C000400,-0724,0839,12153,027.0,045.4,0.224,759.4,01.16,0.508
2017-02-23 00:55:00,1733E-3,5C000400,-0724,0838,12083,027.0,045.4,0.224,759.4,01.16,0.508
2017-02-23 00:56:00,1748E-3,5C000400,-0724,0838,12162,027.0,045.4,0.224,759.4,01.16,0.508
2017-02-23 00:57:00,1662E-3,5C000400,-0724,0839,12033,027.0,045.4,0.224,759.3,01.16,0.508
2017-02-23 00:58:00,1701E-3,5C000400,-0724,0838,12099,027.0,045.4,0.224,759.3,01.16,0.508
2017-02-23 00:59:00,1834E-3,5C000400,-0724,0838,12020,027.0,045.4,0.224,759.3,01.16,0.508
2017-02-23 01:00:00,1728E-3,5C000400,-0724,0838,12080,027.0,045.4,0.224,759.3,01.16,0.508
2017-02-23 01:01:00,1615E-3,5C000400,-0724,0838,12000,027.0,045.4,0.224,759.3,01.16,0.508
2017-02-23 01:02:00,1713E-3,5C000400,-0724,0839,12090,027.0,045.4,0.224,759.3,01.16,0.508
2017-02-23 01:03:00,1730E-3,5C000400,-0724,0838,12073,027.0,045.4,0.224,759.3,01.16,0.508
2017-02-23 01:04:00,1602E-3,5C000400,-0724,0838,12001,027.0,045.4,0.224,759.3,01.16,0.508
2017-02-23 01:05:00,1761E-3,5C000400,-0724,0838,11966,027.0,045.4,0.224,759.3,01.16,0.508
2017-02-23 01:06:00,1652E-3,5C000400,-0724,0838,12019,027.0,045.4,0.224,759.3,01.16,0.508
2017-02-23 01:07:00,1658E-3,5C000400,-0724,0839,11887,027.0,045.4,0.224,759.2,01.16,0.508
2017-02-23 01:08:00,1708E-3,5C000400,-0724,0838,11956,027.0,045.4,0.224,759.2,01.16,0.508
2017-02-23 01:09:00,1668E-3,5C000400,-0724,0839,12076,027.0,045.4,0.224,759.2,01.16,0.508
2017-02-23 01:10:00,1703E-3,5C000400,-0724,0838,12053,027.0,045.4,0.224,759.3,01.16,0.508
2017-02-23 01:11:00,1660E-3,5C000400,-0724,0839,12070,027.0,045.4,0.224,759.2,01.16,0.508
2017-02-23 01:12:00,1697E-3,5C000400,-0724,0839,12186,027.0,045.4,0.224,759.2,01.16,0.508
2017-02-23 01:13:00,1605E-3,5C000400,-0724,0839,12172,027.0,045.4,0.224,759.2,01.16,0.508
2017-02-23 01:14:00,1698E-3,5C000400,-0724,0838,12061,027.0,045.4,0.224,759.2,01.16,0.508
2017-02-23 01:15:00,1612E-3,5C000400,-0724,0838,11893,027.1,045.4,0.224,759.1,01.16,0.508
2017-02-23 01:16:00,1710E-3,5C000400,-0724,0839,12110,027.1,045.4,0.224,759.2,01.16,0.508
2017-02-23 01:17:00,1671E-3,5C000400,-0724,0838,12089,027.0,045.4,0.224,759.2,01.16,0.508
2017-02-23 01:18:00,1766E-3,5C000400,-0724,0838,12045,027.1,045.4,0.224,759.1,01.16,0.508
2017-02-23 01:19:00,1694E-3,5C000400,-0724,0838,12098,027.0,045.4,0.224,759.1,01.16,0.508
2017-02-23 01:20:00,1628E-3,5C000400,-0724,0839,12145,027.1,045.4,0.224,759.1,01.16,0.508
2017-02-23 01:21:00,1716E-3,5C000400,-0724,0839,12102,027.1,045.4,0.224,759.1,01.16,0.508
2017-02-23 01:22:00,1742E-3,5C000400,-0724,0839,12049,027.1,045.4,0.224,759.1,01.16,0.508
2017-02-23 01:23:00,1644E-3,5C000400,-0724,0839,12072,027.1,045.4,0.224,759.1,01.16,0.508
2017-02-23 01:24:00,1679E-3,5C000400,-0724,0838,11961,027.1,045.4,0.224,759.1,01.16,0.508
2017-02-23 01:25:00,1605E-3,5C000400,-0724,0838,12077,027.1,045.4,0.224,759.1,01.16,0.508
2017-02-23 01:26:00,1693E-3,5C000400,-0724,0839,12045,027.1,045.4,0.224,759.1,01.16,0.508
2017-02-23 01:27:00,1724E-3,5C000400,-0724,0838,12044,027.1,045.4,0.224,759.2,01.16,0.508
2017-02-23 01:28:00,1704E-3,5C000400,-0724,0839,12073,027.1,045.4,0.224,759.1,01.16,0.508
2017-02-23 01:29:00,1734E-3,5C000400,-0724,0839,12052,027.1,045.4,0.224,759.1,01.16,0.508
2017-02-23 01:30:00,1652E-3,5C000400,-0724,0839,12053,027.1,045.4,0.224,759.1,01.16,0.508
2017-02-23 01:31:00,1711E-3,5C000400,-0724,0839,12066,027.1,045.4,0.224,759.1,01.16,0.508
2017-02-23 01:32:00,1742E-3,5C000400,-0724,0839,12166,027.1,045.4,0.224,759.1,01.16,0.508
2017-02-23 01:33:00,1696E-3,5C000400,-0724,0838,12166,027.1,045.4,0.224,759.1,01.16,0.508
2017-02-23 01:34:00,1629E-3,5C000400,-0724,0838,11989,027.1,045.4,0.224,759.1,01.16,0.508
2017-02-23 01:35:00,1750E-3,5C000400,-0724,0839,12105,027.1,045.4,0.224,759.0,01.16,0.508
2017-02-23 01:36:00,1663E-3,5C000400,-0724,0838,11956,027.1,045.4,0.224,759.1,01.16,0.508
2017-02-23 01:37:00,1695E-3,5C000400,-0724,0838,12104,027.1,045.4,0.224,759.1,01.16,0.508
2017-02-23 01:38:00,1748E-3,5C000400,-0724,0838,11986,027.1,045.4,0.224,759.1,01.16,0.508
2017-02-23 01:39:00,1618E-3,5C000400,-0724,0838,12074,027.1,045.4,0.224,759.1,01.16,0.508
2017-02-23 01:40:00,1708E-3,5C000400,-0724,0838,11966,027.2,045.4,0.224,759.1,01.16,0.508
2017-02-23 01:41:00,1664E-3,5C000400,-0724,0839,12211,027.2,045.4,0.224,759.1,01.16,0.508
2017-02-23 01:42:00,1556E-3,5C000400,-0724,0838,12062,027.2,045.4,0.223,759.1,01.16,0.508
2017-02-23 01:43:00,1694E-3,5C000400,-0724,0839,12049,027.2,045.4,0.224,759.1,01.16,0.508
2017-02-23 01:44:00,1705E-3,5C000400,-0724,0838,12110,027.2,045.4,0.224,759.1,01.16,0.508
2017-02-23 01:45:00,1685E-3,5C000400,-0724,0839,12075,027.2,045.4,0.224,759.1,01.16,0.508
2017-02-23 01:46:00,1636E-3,5C000400,-0724,0838,12160,027.2,045.4,0.224,759.1,01.16,0.508
2017-02-23 01:47:00,1666E-3,5C000400,-0724,0838,11971,027.2,045.4,0.224,759.1,01.16,0.508
2017-02-23 01:48:00,1572E-3,5C000400,-0724,0838,12072,027.2,045.4,0.224,759.1,01.16,0.508
2017-02-23 01:49:00,1637E-3,5C000400,-0724,0838,12104,027.2,045.4,0.224,759.0,01.16,0.508
2017-02-23 01:50:00,1578E-3,5C000400,-0724,0837,12049,027.2,045.4,0.223,759.0,01.16,0.508
2017-02-23 01:51:00,1655E-3,5C000400,-0724,0839,11935,027.2,045.4,0.223,759.0,01.16,0.508
2017-02-23 01:52:00,1734E-3,5C000400,-0724,0839,12074,027.2,045.4,0.224,759.0,01.16,0.508
2017-02-23 01:53:00,1669E-3,5C000400,-0724,0838,11997,027.2,045.4,0.224,759.0,01.16,0.508
2017-02-23 01:54:00,1757E-3,5C000400,-0724,0839,12076,027.2,045.4,0.224,759.0,01.16,0.508
2017-02-23 01:55:00,1753E-3,5C000400,-0724,0839,12031,027.3,045.4,0.224,759.0,01.16,0.508
2017-02-23 01:56:00,1733E-3,5C000400,-0724,0838,12125,027.2,045.4,0.224,759.0,01.16,0.508
2017-02-23 01:57:00,1621E-3,5C000400,-0724,0839,12118,027.2,045.4,0.224,759.0,01.16,0.508
2017-02-23 01:58:00,1786E-3,5C000400,-0724,0839,12218,027.2,045.4,0.224,759.0,01.16,0.508
2017-02-23 01:59:00,1746E-3,5C000400,-0724,0839,12091,027.3,045.4,0.223,759.0,01.16,0.508
2017-02-23 02:00:00,1697E-3,5C000400,-0724,0839,12078,027.3,045.4,0.223,759.0,01.16,0.508
2017-02-23 02:01:00,1682E-3,5C000400,-0724,0839,12209,027.3,045.4,0.224,759.0,01.16,0.508
2017-02-23 02:02:00,1643E-3,5C000400,-0724,0839,12002,027.3,045.4,0.224,759.0,01.16,0.508
2017-02-23 02:03:00,1685E-3,5C000400,-0724,0839,12135,027.3,045.4,0.224,759.0,01.16,0.508
2017-02-23 02:04:00,1737E-3,5C000400,-0724,0838,12003,027.3,045.4,0.224,759.0,01.16,0.508
2017-02-23 02:05:00,1726E-3,5C000400,-0724,0839,12109,027.3,045.4,0.224,759.0,01.16,0.508
2017-02-23 02:06:00,1669E-3,5C000400,-0724,0839,12116,027.3,045.4,0.224,759.0,01.16,0.508
2017-02-23 02:07:00,1588E-3,5C000400,-0724,0838,12211,027.3,045.4,0.223,759.1,01.16,0.508
2017-02-23 02:08:00,1762E-3,5C000400,-0724,0839,11939,027.3,045.4,0.223,759.1,01.16,0.508
2017-02-23 02:09:00,1743E-3,5C000400,-0724,0839,12181,027.3,045.4,0.224,759.0,01.16,0.508
2017-02-23 02:10:00,1766E-3,5C000400,-0724,0839,12204,027.3,045.4,0.224,759.1,01.16,0.508
2017-02-23 02:11:00,1649E-3,5C000400,-0724,0838,11944,027.3,045.4,0.224,759.1,01.16,0.508
2017-02-23 02:12:00,1625E-3,5C000400,-0724,0838,12093,027.3,045.4,0.224,759.1,01.16,0.508
2017-02-23 02:13:00,1590E-3,5C000400,-0724,0838,11927,027.3,045.4,0.224,759.1,01.16,0.508
2017-02-23 02:14:00,1577E-3,5C000400,-0724,0838,12162,027.3,045.4,0.223,759.1,01.16,0.508
2017-02-23 02:15:00,1573E-3,5C000400,-0724,0839,12087,027.3,045.4,0.223,759.1,01.16,0.508
2017-02-23 02:16:00,1747E-3,5C000400,-0724,0839,12098,027.3,045.4,0.223,759.1,01.16,0.508
2017-02-23 02:17:00,1614E-3,5C000400,-0724,0838,12009,027.3,045.4,0.224,759.1,01.16,0.508
2017-02-23 02:18:00,1749E-3,5C000400,-0724,0838,12060,027.4,045.4,0.223,759.1,01.16,0.508
2017-02-23 02:19:00,1774E-3,5C000400,-0724,0839,11972,027.3,045.4,0.224,759.1,01.16,0.508
2017-02-23 02:20:00,1573E-3,5C000400,-0724,0838,12022,027.3,045.4,0.224,759.1,01.16,0.508
2017-02-23 02:21:00,1625E-3,5C000400,-0724,0839,12088,027.4,045.4,0.224,759.1,01.16,0.508
2017-02-23 02:22:00,1699E-3,5C000400,-0724,0838,11997,027.4,045.4,0.223,759.1,01.16,0.508
2017-02-23 02:23:00,1664E-3,5C000400,-0724,0839,11850,027.4,045.4,0.223,759.1,01.16,0.508
2017-02-23 02:24:00,1584E-3,5C000400,-0724,0838,12101,027.4,045.4,0.223,759.1,01.16,0.508
2017-02-23 02:25:00,1824E-3,5C000400,-0724,0838,12029,027.4,045.4,0.223,759.1,01.16,0.508
2017-02-23 02:26:00,1643E-3,5C000400,-0724,0839,11966,027.4,045.4,0.224,759.1,01.16,0.508
2017-02-23 02:27:00,1682E-3,5C000400,-0724,0839,12044,027.4,045.4,0.223,759.1,01.16,0.508
2017-02-23 02:28:00,1650E-3,5C000400,-0724,0838,12108,027.4,045.4,0.223,759.1,01.16,0.508
2017-02-23 02:29:00,1739E-3,5C000400,-0724,0838,12131,027.4,045.4,0.223,759.1,01.16,0.508
2017-02-23 02:30:00,1615E-3,5C000400,-0724,0839,12066,027.4,045.4,0.223,759.1,01.16,0.508
2017-02-23 02:31:00,1605E-3,5C000400,-0724,0838,12167,027.4,045.4,0.223,759.1,01.16,0.508
2017-02-23 02:32:00,1635E-3,5C000400,-0724,0838,12066,027.4,045.4,0.223,759.0,01.16,0.508
2017-02-23 02:33:00,1637E-3,5C000400,-0724,0839,12163,027.4,045.4,0.224,759.1,01.16,0.508
2017-02-23 02:34:00,1676E-3,5C000400,-0724,0839,12090,027.4,045.4,0.223,759.0,01.16,0.508
2017-02-23 02:35:00,1722E-3,5C000400,-0724,0838,11964,027.4,045.4,0.223,759.0,01.16,0.508
2017-02-23 02:36:00,1703E-3,5C000400,-0724,0839,12173,027.4,045.4,0.224,759.0,01.16,0.508
2017-02-23 02:37:00,1694E-3,5C000400,-0724,0839,12042,027.4,045.4,0.224,759.0,01.16,0.508
2017-02-23 02:38:00,1786E-3,5C000400,-0724,0839,12044,027.5,045.4,0.223,759.1,01.16,0.508
2017-02-23 02:39:00,1837E-3,5C000400,-0724,0839,11932,027.5,045.4,0.223,759.1,01.16,0.508
2017-02-23 02:40:00,1724E-3,5C000400,-0724,0838,11967,027.5,045.4,0.223,759.1,01.16,0.508
2017-02-23 02:41:00,1803E-3,5C000400,-0724,0839,11830,027.5,045.4,0.223,759.1,01.16,0.508
2017-02-23 02:42:00,1769E-3,5C000400,-0724,0839,12074,027.5,045.4,0.223,759.1,01.16,0.508
2017-02-23 02:43:00,1663E-3,5C000400,-0724,0838,12010,027.5,045.4,0.223,759.1,01.16,0.508
2017-02-23 02:44:00,1630E-3,5C000400,-0724,0839,11988,027.5,045.4,0.223,759.0,01.16,0.508
2017-02-23 02:45:00,1658E-3,5C000400,-0724,0838,12021,027.5,045.4,0.223,759.0,01.16,0.508
2017-02-23 02:46:00,1647E-3,5C000400,-0724,0838,12151,027.5,045.4,0.223,759.0,01.16,0.508
2017-02-23 02:47:00,1619E-3,5C000400,-0724,0839,12044,027.5,045.4,0.223,759.0,01.16,0.508
2017-02-23 02:48:00,1694E-3,5C000400,-0724,0839,12022,027.5,045.4,0.223,759.0,01.16,0.508
2017-02-23 02:49:00,1578E-3,5C000400,-0724,0839,12112,027.5,045.4,0.223,759.0,01.16,0.508
2017-02-23 02:50:00,1632E-3,5C000400,-0724,0839,12148,027.5,045.4,0.223,759.0,01.16,0.508
2017-02-23 02:51:00,1705E-3,5C000400,-0724,0838,12037,027.5,045.4,0.223,759.0,01.16,0.508
2017-02-23 02:52:00,1656E-3,5C000400,-0724,0839,12127,027.5,045.4,0.223,759.0,01.16,0.508
2017-02-23 02:53:00,1773E-3,5C000400,-0724,0838,12093,027.6,045.4,0.223,759.0,01.16,0.508
2017-02-23 02:54:00,1697E-3,5C000400,-0724,0838,11987,027.5,045.4,0.223,759.0,01.16,0.508
2017-02-23 02:55:00,1592E-3,5C000400,-0724,0839,12056,027.6,045.4,0.223,759.0,01.16,0.508
2017-02-23 02:56:00,1615E-3,5C000400,-0724,0838,12063,027.6,045.4,0.223,759.0,01.16,0.508
2017-02-23 02:57:00,1838E-3,5C000400,-0724,0838,12066,027.6,045.4,0.223,759.0,01.16,0.508
2017-02-23 02:58:00,1732E-3,5C000400,-0724,0839,12174,027.6,045.4,0.223,759.0,01.16,0.508
2017-02-23 02:59:00,1748E-3,5C000400,-0724,0838,11998,027.6,045.4,0.223,759.0,01.16,0.508
2017-02-23 03:00:00,1620E-3,5C000400,-0724,0839,12111,027.6,045.4,0.223,759.0,01.16,0.508
2017-02-23 03:01:00,1766E-3,5C000400,-0724,0839,12110,027.6,045.4,0.223,759.0,01.16,0.508
2017-02-23 03:02:00,1698E-3,5C000400,-0724,0839,12125,027.6,045.4,0.223,758.9,01.16,0.508
2017-02-23 03:03:00,1643E-3,5C000400,-0724,0839,12081,027.6,045.4,0.223,758.9,01.16,0.508
2017-02-23 03:04:00,1670E-3,5C000400,-0724,0838,11934,027.6,045.4,0.223,758.9,01.16,0.508
2017-02-23 03:05:00,1569E-3,5C000400,-0724,0838,12146,027.6,045.4,0.223,758.9,01.16,0.508
2017-02-23 03:06:00,1588E-3,5C000400,-0724,0838,12075,027.6,045.4,0.223,758.9,01.16,0.508
2017-02-23 03:07:00,1634E-3,5C000400,-0724,0839,11980,027.6,045.4,0.223,758.9,01.16,0.508
2017-02-23 03:08:00,1692E-3,5C000400,-0724,0838,12069,027.6,045.4,0.223,758.9,01.16,0.508
2017-02-23 03:09:00,1726E-3,5C000400,-0724,0839,11787,027.6,045.4,0.223,758.8,01.16,0.508
2017-02-23 03:10:00,1612E-3,5C000400,-0724,0839,11982,027.6,045.4,0.223,758.8,01.16,0.508
2017-02-23 03:11:00,1715E-3,5C000400,-0724,0839,12058,027.6,045.4,0.223,758.8,01.16,0.508
2017-02-23 03:12:00,1672E-3,5C000400,-0724,0839,12029,027.7,045.4,0.223,758.8,01.16,0.508
2017-02-23 03:13:00,1798E-3,5C000400,-0724,0839,12088,027.7,045.4,0.223,758.7,01.16,0.508
2017-02-23 03:14:00,1728E-3,5C000400,-0724,0839,11872,027.7,045.4,0.223,758.7,01.16,0.508
2017-02-23 03:15:00,1689E-3,5C000400,-0724,0839,12053,027.7,045.4,0.223,758.7,01.16,0.508
2017-02-23 03:16:00,1668E-3,5C000400,-0724,0839,12067,027.7,045.4,0.223,758.7,01.16,0.508
2017-02-23 03:17:00,1637E-3,5C000400,-0724,0838,12184,027.7,045.4,0.223,758.7,01.16,0.508
2017-02-23 03:18:00,1708E-3,5C000400,-0724,0838,11976,027.7,045.4,0.223,758.7,01.16,0.508
2017-02-23 03:19:00,1621E-3,5C000400,-0724,0839,12113,027.7,045.4,0.223,758.7,01.16,0.508
2017-02-23 03:20:00,1703E-3,5C000400,-0724,0838,12219,027.7,045.4,0.223,758.7,01.16,0.508
2017-02-23 03:21:00,1569E-3,5C000400,-0724,0839,12103,027.7,045.4,0.223,758.7,01.16,0.508
2017-02-23 03:22:00,1748E-3,5C000400,-0724,0838,12012,027.7,045.4,0.223,758.7,01.16,0.508
2017-02-23 03:23:00,1733E-3,5C000400,-0724,0839,12032,027.7,045.4,0.222,758.6,01.16,0.508
2017-02-23 03:24:00,1667E-3,5C000400,-0724,0838,12117,027.8,045.4,0.223,758.7,01.16,0.508
2017-02-23 03:25:00,1702E-3,5C000400,-0724,0838,12003,027.7,045.4,0.223,758.7,01.16,0.508
2017-02-23 03:26:00,1622E-3,5C000400,-0724,0838,12049,027.7,045.4,0.223,758.6,01.16,0.508
2017-02-23 03:27:00,1770E-3,5C000400,-0724,0838,12175,027.8,045.4,0.223,758.6,01.16,0.508
2017-02-23 03:28:00,1689E-3,5C000400,-0724,0839,12013,027.8,045.4,0.222,758.6,01.16,0.508
2017-02-23 03:29:00,1730E-3,5C000400,-0724,0839,12121,027.8,045.4,0.222,758.6,01.16,0.508
2017-02-23 03:30:00,1676E-3,5C000400,-0724,0839,12100,027.8,045.4,0.223,758.6,01.16,0.508
2017-02-23 03:31:00,1637E-3,5C000400,-0724,0839,12147,027.8,045.4,0.223,758.7,01.16,0.508
2017-02-23 03:32:00,1717E-3,5C000400,-0724,0838,12012,027.8,045.4,0.223,758.7,01.16,0.508
2017-02-23 03:33:00,1707E-3,5C000400,-0724,0838,12075,027.8,045.4,0.223,758.7,01.16,0.508
2017-02-23 03:34:00,1691E-3,5C000400,-0724,0838,11978,027.8,045.4,0.222,758.6,01.16,0.508
2017-02-23 03:35:00,1748E-3,5C000400,-0724,0839,12022,027.8,045.4,0.223,758.6,01.16,0.508
2017-02-23 03:36:00,1639E-3,5C000400,-0724,0838,11884,027.8,045.4,0.223,758.6,01.16,0.508
2017-02-23 03:37:00,1690E-3,5C000400,-0724,0838,12135,027.8,045.4,0.223,758.6,01.16,0.508
2017-02-23 03:38:00,1642E-3,5C000400,-0724,0838,11961,027.8,045.4,0.223,758.7,01.16,0.508
2017-02-23 03:39:00,1626E-3,5C000400,-0724,0839,11999,027.8,045.4,0.222,758.7,01.16,0.508
2017-02-23 03:40:00,1767E-3,5C000400,-0724,0837,12087,027.8,045.4,0.222,758.7,01.16,0.508
2017-02-23 03:41:00,1704E-3,5C000400,-0724,0838,11972,027.8,045.4,0.222,758.7,01.16,0.508
2017-02-23 03:42:00,1758E-3,5C000400,-0724,0839,12040,027.8,045.4,0.223,758.7,01.16,0.508
2017-02-23 03:43:00,1738E-3,5C000400,-0724,0839,12109,027.8,045.4,0.222,758.7,01.16,0.508
2017-02-23 03:44:00,1697E-3,5C000400,-0724,0838,12055,027.8,045.4,0.222,758.7,01.16,0.508
2017-02-23 03:45:00,1680E-3,5C000400,-0724,0839,12054,027.9,045.4,0.222,758.7,01.16,0.508
2017-02-23 03:46:00,1744E-3,5C000400,-0724,0839,12050,027.9,045.4,0.222,758.7,01.16,0.508
2017-02-23 03:47:00,1722E-3,5C000400,-0724,0838,11978,027.9,045.4,0.223,758.7,01.16,0.508
2017-02-23 03:48:00,1645E-3,5C000400,-0724,0838,12048,027.9,045.4,0.222,758.7,01.16,0.508
2017-02-23 03:49:00,1659E-3,5C000400,-0724,0838,12010,027.9,045.4,0.222,758.8,01.16,0.508
2017-02-23 03:50:00,1801E-3,5C000400,-0724,0838,12083,027.9,045.4,0.222,758.7,01.16,0.508
2017-02-23 03:51:00,1588E-3,5C000400,-0724,0838,11979,027.9,045.4,0.222,758.7,01.16,0.508
2017-02-23 03:52:00,1625E-3,5C000400,-0724,0840,12098,027.9,045.4,0.222,758.7,01.16,0.508
2017-02-23 03:53:00,1912E-3,5C000400,-0724,0839,12031,027.9,045.5,0.222,758.7,01.16,0.508
2017-02-23 03:54:00,1740E-3,5C000400,-0724,0839,12032,027.9,045.4,0.222,758.7,01.16,0.508
2017-02-23 03:55:00,1679E-3,5C000400,-0724,0838,11992,027.9,045.4,0.222,758.7,01.16,0.508
2017-02-23 03:56:00,1656E-3,5C000400,-0724,0839,12046,027.9,045.4,0.222,758.7,01.16,0.508
2017-02-23 03:57:00,1586E-3,5C000400,-0724,0838,12025,027.9,045.4,0.222,758.7,01.16,0.508
2017-02-23 03:58:00,1520E-3,5C000400,-0724,0839,12160,028.0,045.4,0.222,758.7,01.16,0.508
2017-02-23 03:59:00,1754E-3,5C000400,-0724,0838,12079,027.9,045.4,0.222,758.7,01.16,0.508
2017-02-23 04:00:00,1669E-3,5C000400,-0724,0838,12150,027.9,045.4,0.222,758.7,01.16,0.508
2017-02-23 04:01:00,1750E-3,5C000400,-0724,0838,12098,028.0,045.5,0.222,758.7,01.16,0.508
2017-02-23 04:02:00,1692E-3,5C000400,-0724,0838,12030,028.0,045.4,0.222,758.7,01.16,0.508
2017-02-23 04:03:00,1757E-3,5C000400,-0724,0838,12106,028.0,045.4,0.222,758.7,01.16,0.508
2017-02-23 04:04:00,1786E-3,5C000400,-0724,0838,12097,028.0,045.4,0.222,758.7,01.16,0.508
2017-02-23 04:05:00,1672E-3,5C000400,-0724,0838,12026,028.0,045.4,0.222,758.7,01.16,0.508
2017-02-23 04:06:00,1563E-3,5C000400,-0724,0838,12040,028.0,045.4,0.222,758.7,01.16,0.508
2017-02-23 04:07:00,1675E-3,5C000400,-0724,0838,12124,028.0,045.4,0.222,758.7,01.16,0.508
2017-02-23 04:08:00,1731E-3,5C000400,-0724,0838,12081,028.0,045.5,0.222,758.7,01.16,0.508
2017-02-23 04:09:00,1728E-3,5C000400,-0724,0838,11979,028.0,045.5,0.222,758.7,01.16,0.508
2017-02-23 04:10:00,1801E-3,5C000400,-0724,0838,12062,028.0,045.4,0.222,758.7,01.16,0.508
2017-02-23 04:11:00,1539E-3,5C000400,-0724,0838,12077,028.0,045.4,0.222,758.7,01.16,0.508
2017-02-23 04:12:00,1585E-3,5C000400,-0724,0839,12140,028.0,045.4,0.222,758.7,01.16,0.508
2017-02-23 04:13:00,1700E-3,5C000400,-0724,0838,12040,028.0,045.4,0.222,758.7,01.16,0.508
2017-02-23 04:14:00,1614E-3,5C000400,-0724,0838,12104,028.0,045.4,0.222,758.7,01.16,0.508
2017-02-23 04:15:00,1604E-3,5C000400,-0724,0839,12051,028.0,045.4,0.222,758.7,01.16,0.508
2017-02-23 04:16:00,1711E-3,5C000400,-0724,0840,12053,028.0,045.4,0.222,758.8,01.16,0.508
2017-02-23 04:17:00,1585E-3,5C000400,-0724,0839,12141,028.1,045.4,0.222,758.8,01.16,0.508
2017-02-23 04:18:00,1601E-3,5C000400,-0724,0838,11953,028.1,045.5,0.222,758.8,01.16,0.508
2017-02-23 04:19:00,1740E-3,5C000400,-0724,0838,12092,028.1,045.4,0.222,758.8,01.16,0.508
2017-02-23 04:20:00,1640E-3,5C000400,-0724,0839,12066,028.1,045.4,0.222,758.8,01.16,0.508